AAL1234 KMSY-KILM

Flight info

Callsign AAL1234
Flight time N/A
Altitude 39000
Route CEW MCN FLO/N0335F170 V259 CRE V213 WYLMS
Aircraft A20N/M-SDE2E3FGHIRWXY/LB1

Departure

Time 2026-05-05 01:10
Airport Louis Armstrong New Orleans International Airport (KMSY)

Arrival

Time N/A
Airport Wilmington International Airport (KILM)
Time Latitude Longitude Altitude Speed Heading
2026-05-05 00:48 29.98862 -90.25885 19 ft 0 kts 204°
2026-05-05 01:04 29.98885 -90.25873 20 ft 3 kts 204°
2026-05-05 01:04 29.98903 -90.25864 19 ft 3 kts 204°
2026-05-05 01:05 29.98920 -90.25855 19 ft 3 kts 204°
2026-05-05 01:05 29.98921 -90.25855 19 ft 2 kts 204°
2026-05-05 01:05 29.98929 -90.25850 19 ft 1 kts 204°
2026-05-05 01:06 29.98919 -90.25856 19 ft 0 kts 203°
2026-05-05 01:06 29.98932 -90.25849 20 ft 3 kts 203°
2026-05-05 01:06 29.98949 -90.25845 19 ft 2 kts 151°
2026-05-05 01:06 29.98957 -90.25853 18 ft 0 kts 103°
2026-05-05 01:07 29.98957 -90.25851 18 ft 2 kts 100°
2026-05-05 01:07 29.98957 -90.25824 19 ft 7 kts 88°
2026-05-05 01:07 29.98943 -90.25706 22 ft 21 kts 106°
2026-05-05 01:07 29.98902 -90.25531 18 ft 24 kts 105°
2026-05-05 01:08 29.98859 -90.25350 16 ft 24 kts 108°
2026-05-05 01:08 29.98834 -90.25200 13 ft 15 kts 82°
2026-05-05 01:08 29.98847 -90.25167 15 ft 3 kts 44°
2026-05-05 01:08 29.98913 -90.25142 14 ft 9 kts
2026-05-05 01:09 29.98938 -90.25172 15 ft 0 kts 285°
2026-05-05 01:09 29.98942 -90.25190 16 ft 10 kts 285°
2026-05-05 01:09 29.99014 -90.25487 16 ft 69 kts 286°
2026-05-05 01:10 29.99202 -90.26269 15 ft 134 kts 286°
2026-05-05 01:10 29.99515 -90.27520 96 ft 186 kts 286°
2026-05-05 01:10 29.99892 -90.28950 388 ft 175 kts 287°
2026-05-05 01:10 30.00375 -90.30202 689 ft 174 kts 309°
2026-05-05 01:11 30.01336 -90.31143 909 ft 176 kts 319°
2026-05-05 01:11 30.02247 -90.31977 792 ft 160 kts 319°
2026-05-05 01:11 30.03222 -90.32652 1012 ft 167 kts 344°
2026-05-05 01:11 30.04369 -90.32858 1763 ft 171 kts 356°
2026-05-05 01:12 30.05634 -90.32924 2268 ft 192 kts 359°
2026-05-05 01:12 30.06950 -90.32960 2672 ft 185 kts 359°
2026-05-05 01:12 30.08290 -90.32990 2918 ft 196 kts 359°
2026-05-05 01:12 30.09636 -90.33020 2947 ft 187 kts 358°
2026-05-05 01:13 30.10954 -90.32854 3230 ft 196 kts 22°
2026-05-05 01:13 30.11978 -90.31904 4045 ft 187 kts 64°
2026-05-05 01:13 30.12410 -90.30492 4660 ft 196 kts 73°
2026-05-05 01:13 30.13030 -90.29050 5180 ft 204 kts 59°
2026-05-05 01:14 30.13830 -90.27711 5739 ft 189 kts 54°
2026-05-05 01:14 30.14456 -90.26543 5970 ft 158 kts 49°
2026-05-05 01:14 30.15335 -90.25895 5599 ft 150 kts 359°
2026-05-05 01:14 30.16379 -90.26098 5480 ft 164 kts 342°
2026-05-05 01:15 30.17566 -90.26276 5960 ft 181 kts 352°
2026-05-05 01:15 30.18874 -90.26353 6392 ft 194 kts 352°
2026-05-05 01:15 30.20240 -90.26436 6887 ft 198 kts 352°
2026-05-05 01:15 30.21621 -90.26522 7423 ft 200 kts 352°
2026-05-05 01:16 30.23005 -90.26609 7957 ft 192 kts 352°
2026-05-05 01:16 30.24331 -90.26685 8480 ft 192 kts 351°
2026-05-05 01:16 30.25685 -90.26702 8963 ft 200 kts
2026-05-05 01:16 30.26943 -90.25954 9485 ft 212 kts 39°
2026-05-05 01:17 30.27829 -90.24564 10025 ft 217 kts 53°
2026-05-05 01:17 30.28435 -90.22957 10508 ft 220 kts 70°
2026-05-05 01:17 30.28702 -90.21214 11005 ft 221 kts 81°
2026-05-05 01:17 30.28775 -90.19473 11497 ft 218 kts 84°
2026-05-05 01:18 30.28819 -90.17710 12011 ft 214 kts 84°
2026-05-05 01:18 30.28851 -90.16030 12517 ft 210 kts 84°
2026-05-05 01:18 30.28939 -90.14350 13043 ft 202 kts 77°
2026-05-05 01:18 30.29122 -90.12757 13436 ft 206 kts 76°
2026-05-05 01:19 30.29340 -90.11062 13619 ft 220 kts 76°
2026-05-05 01:19 30.29586 -90.09252 13787 ft 235 kts 75°
2026-05-05 01:19 30.29854 -90.07336 13931 ft 248 kts 75°
2026-05-05 01:19 30.30142 -90.05328 14150 ft 256 kts 75°
2026-05-05 01:20 30.30435 -90.03282 14454 ft 259 kts 75°
2026-05-05 01:20 30.30729 -90.01216 14788 ft 262 kts 75°
2026-05-05 01:20 30.31026 -89.99127 15129 ft 264 kts 76°
2026-05-05 01:20 30.31330 -89.97025 15441 ft 266 kts 75°
2026-05-05 01:21 30.31637 -89.94898 15768 ft 268 kts 75°
2026-05-05 01:21 30.31945 -89.92759 16097 ft 270 kts 75°
2026-05-05 01:21 30.32252 -89.90612 16426 ft 271 kts 75°
2026-05-05 01:21 30.32557 -89.88474 16731 ft 274 kts 75°
2026-05-05 01:22 30.32868 -89.86291 17045 ft 275 kts 75°
2026-05-05 01:22 30.33179 -89.84093 17349 ft 277 kts 75°
2026-05-05 01:22 30.33490 -89.81886 17665 ft 278 kts 75°
2026-05-05 01:22 30.33801 -89.79667 17950 ft 280 kts 75°
2026-05-05 01:23 30.34113 -89.77431 18240 ft 282 kts 75°
2026-05-05 01:23 30.34425 -89.75179 18496 ft 284 kts 75°
2026-05-05 01:23 30.34739 -89.72916 18730 ft 285 kts 75°
2026-05-05 01:23 30.35054 -89.70640 18968 ft 287 kts 75°
2026-05-05 01:24 30.35370 -89.68353 19212 ft 289 kts 75°
2026-05-05 01:24 30.35687 -89.66050 19430 ft 290 kts 75°
2026-05-05 01:24 30.35999 -89.63766 19662 ft 292 kts 75°
2026-05-05 01:24 30.36317 -89.61440 19898 ft 293 kts 75°
2026-05-05 01:25 30.36634 -89.59101 20156 ft 295 kts 75°
2026-05-05 01:25 30.36951 -89.56749 20383 ft 297 kts 75°
2026-05-05 01:25 30.37270 -89.54381 20612 ft 298 kts 75°
2026-05-05 01:25 30.37590 -89.51999 20840 ft 300 kts 75°
2026-05-05 01:26 30.37909 -89.49607 21064 ft 301 kts 75°
2026-05-05 01:26 30.38229 -89.47200 21283 ft 303 kts 75°
2026-05-05 01:26 30.38551 -89.44778 21498 ft 305 kts 75°
2026-05-05 01:26 30.38874 -89.42348 21710 ft 306 kts 75°
2026-05-05 01:27 30.39199 -89.39905 21924 ft 307 kts 75°
2026-05-05 01:27 30.39523 -89.37454 22129 ft 309 kts 75°
2026-05-05 01:27 30.39848 -89.34992 22358 ft 310 kts 75°
2026-05-05 01:27 30.40185 -89.32521 22549 ft 311 kts 75°
2026-05-05 01:28 30.40503 -89.30038 22741 ft 313 kts 76°
2026-05-05 01:28 30.40814 -89.27542 22921 ft 314 kts 76°
2026-05-05 01:28 30.41121 -89.25063 23093 ft 315 kts 76°
2026-05-05 01:28 30.41435 -89.22540 23264 ft 317 kts 76°
2026-05-05 01:29 30.41759 -89.19987 23249 ft 325 kts 76°
2026-05-05 01:29 30.42099 -89.17365 23326 ft 332 kts 76°
2026-05-05 01:29 30.42449 -89.14703 23452 ft 337 kts 76°
2026-05-05 01:29 30.42807 -89.12001 23585 ft 342 kts 76°
2026-05-05 01:30 30.43053 -89.10153 23668 ft 345 kts 76°
2026-05-05 01:30 30.43416 -89.07421 23775 ft 350 kts 76°
2026-05-05 01:30 30.43787 -89.04616 23866 ft 354 kts 76°
2026-05-05 01:30 30.44161 -89.01774 23975 ft 359 kts 76°
2026-05-05 01:31 30.44536 -88.98905 24094 ft 362 kts 76°
2026-05-05 01:31 30.44910 -88.96005 24236 ft 365 kts 75°
2026-05-05 01:31 30.45297 -88.93093 24392 ft 367 kts 75°
2026-05-05 01:31 30.45667 -88.90162 24553 ft 368 kts 76°
2026-05-05 01:32 30.46029 -88.87219 24706 ft 369 kts 76°
2026-05-05 01:32 30.46387 -88.84264 24861 ft 370 kts 76°
2026-05-05 01:32 30.46744 -88.81309 25021 ft 371 kts 76°
2026-05-05 01:32 30.47097 -88.78340 25157 ft 372 kts 76°
2026-05-05 01:33 30.47447 -88.75359 25297 ft 374 kts 76°
2026-05-05 01:33 30.47792 -88.72370 25446 ft 375 kts 75°
2026-05-05 01:33 30.47916 -88.69334 25524 ft 386 kts 95°
2026-05-05 01:33 30.47144 -88.66332 25612 ft 391 kts 109°
2026-05-05 01:34 30.46184 -88.63386 25807 ft 384 kts 109°
2026-05-05 01:34 30.45252 -88.60537 26062 ft 384 kts 108°
2026-05-05 01:34 30.44300 -88.57595 26024 ft 393 kts 95°
2026-05-05 01:34 30.43461 -88.54561 26228 ft 398 kts 104°
2026-05-05 01:35 30.42619 -88.51493 26592 ft 401 kts 104°
2026-05-05 01:35 30.41797 -88.48518 27754 ft 349 kts 103°
2026-05-05 01:35 30.41082 -88.45942 28909 ft 334 kts 100°
2026-05-05 01:35 30.40388 -88.43290 28404 ft 366 kts 99°
2026-05-05 01:36 30.40014 -88.40310 27902 ft 379 kts 76°
2026-05-05 01:36 30.40433 -88.37305 27925 ft 380 kts 67°
2026-05-05 01:36 30.40991 -88.34279 28144 ft 388 kts 68°
2026-05-05 01:36 30.41518 -88.31194 28447 ft 393 kts 69°
2026-05-05 01:37 30.42016 -88.28063 28776 ft 397 kts 69°
2026-05-05 01:37 30.42505 -88.24899 29117 ft 400 kts 69°
2026-05-05 01:37 30.42987 -88.21699 29460 ft 403 kts 69°
2026-05-05 01:37 30.43461 -88.18488 29790 ft 406 kts 70°
2026-05-05 01:38 30.43897 -88.15233 30133 ft 410 kts 70°
2026-05-05 01:38 30.44320 -88.11958 30409 ft 413 kts 70°
2026-05-05 01:38 30.44741 -88.08649 30697 ft 416 kts 70°
2026-05-05 01:38 30.45168 -88.05316 30943 ft 419 kts 70°
2026-05-05 01:39 30.45598 -88.01965 31190 ft 422 kts 70°
2026-05-05 01:39 30.46027 -87.98590 31439 ft 425 kts 70°
2026-05-05 01:39 30.46457 -87.95188 31695 ft 427 kts 70°
2026-05-05 01:39 30.46881 -87.91811 31946 ft 430 kts 70°
2026-05-05 01:40 30.47316 -87.88325 32193 ft 433 kts 70°
2026-05-05 01:40 30.47746 -87.84862 32446 ft 435 kts 70°
2026-05-05 01:40 30.48175 -87.81383 32679 ft 438 kts 70°
2026-05-05 01:40 30.48606 -87.77883 32909 ft 440 kts 70°
2026-05-05 01:41 30.49033 -87.74402 33135 ft 442 kts 70°
2026-05-05 01:41 30.49464 -87.70861 33371 ft 445 kts 70°
2026-05-05 01:41 30.49898 -87.67305 33596 ft 447 kts 70°
2026-05-05 01:41 30.50333 -87.63731 33815 ft 449 kts 70°
2026-05-05 01:42 30.50769 -87.60138 34025 ft 451 kts 70°
2026-05-05 01:42 30.51206 -87.56531 34216 ft 452 kts 69°
2026-05-05 01:42 30.51710 -87.52937 34396 ft 450 kts 67°
2026-05-05 01:42 30.52321 -87.49378 34590 ft 449 kts 65°
2026-05-05 01:43 30.52982 -87.45837 34778 ft 450 kts 65°
2026-05-05 01:43 30.53627 -87.42275 34955 ft 452 kts 66°
2026-05-05 01:43 30.54271 -87.38693 35146 ft 454 kts 66°
2026-05-05 01:43 30.54919 -87.35110 35323 ft 455 kts 66°
2026-05-05 01:44 30.55575 -87.31516 35529 ft 456 kts 66°
2026-05-05 01:44 30.56238 -87.27917 35736 ft 456 kts 65°
2026-05-05 01:44 30.56906 -87.24313 35907 ft 457 kts 65°
2026-05-05 01:44 30.57580 -87.20701 36067 ft 459 kts 65°
2026-05-05 01:45 30.58260 -87.17081 36225 ft 460 kts 65°
2026-05-05 01:45 30.58948 -87.13447 36380 ft 461 kts 65°
2026-05-05 01:45 30.59641 -87.09809 36543 ft 462 kts 65°
2026-05-05 01:45 30.60340 -87.06158 36701 ft 464 kts 65°
2026-05-05 01:46 30.61045 -87.02502 36854 ft 464 kts 65°
2026-05-05 01:46 30.61879 -86.98965 36991 ft 457 kts 59°
2026-05-05 01:46 30.62985 -86.95542 37136 ft 450 kts 54°
2026-05-05 01:46 30.64204 -86.92198 37343 ft 449 kts 53°
2026-05-05 01:47 30.65436 -86.88869 37512 ft 449 kts 53°
2026-05-05 01:47 30.66677 -86.85532 37635 ft 450 kts 53°
2026-05-05 01:47 30.67954 -86.82206 37758 ft 448 kts 51°
2026-05-05 01:47 30.69336 -86.78968 37888 ft 445 kts 48°
2026-05-05 01:48 30.70844 -86.75844 38015 ft 441 kts 46°
2026-05-05 01:48 30.72407 -86.72780 38162 ft 442 kts 45°
2026-05-05 01:48 30.73988 -86.69707 38295 ft 443 kts 45°
2026-05-05 01:48 30.75577 -86.66633 38416 ft 444 kts 45°
2026-05-05 01:49 30.77171 -86.63557 38546 ft 445 kts 45°
2026-05-05 01:49 30.78772 -86.60475 38666 ft 446 kts 45°
2026-05-05 01:49 30.80378 -86.57388 38781 ft 447 kts 45°
2026-05-05 01:49 30.81957 -86.54320 38921 ft 450 kts 47°
2026-05-05 01:50 30.83468 -86.51108 39036 ft 454 kts 49°
2026-05-05 01:50 30.84951 -86.47857 39077 ft 457 kts 49°
2026-05-05 01:50 30.87966 -86.41270 39076 ft 464 kts 49°
2026-05-05 01:51 30.91050 -86.34596 39110 ft 472 kts 49°
2026-05-05 01:51 30.94176 -86.27869 39052 ft 471 kts 49°
2026-05-05 01:52 30.97286 -86.21165 39051 ft 469 kts 49°
2026-05-05 01:52 31.00397 -86.14480 39035 ft 468 kts 49°
2026-05-05 01:53 31.03517 -86.07816 39029 ft 467 kts 49°
2026-05-05 01:53 31.06630 -86.01172 39036 ft 467 kts 49°
2026-05-05 01:54 31.09727 -85.94570 39041 ft 467 kts 49°
2026-05-05 01:54 31.12850 -85.87928 39044 ft 467 kts 49°
2026-05-05 01:55 31.15975 -85.81291 39040 ft 467 kts 49°
2026-05-05 01:55 31.19098 -85.74646 39045 ft 466 kts 49°
2026-05-05 01:56 31.22190 -85.68014 39047 ft 464 kts 49°
2026-05-05 01:56 31.25274 -85.61396 39043 ft 463 kts 49°
2026-05-05 01:57 31.28363 -85.54776 39075 ft 463 kts 49°
2026-05-05 01:57 31.31453 -85.48159 39074 ft 463 kts 48°
2026-05-05 01:58 31.34546 -85.41546 39098 ft 463 kts 49°
2026-05-05 01:58 31.37649 -85.34954 39074 ft 462 kts 48°
2026-05-05 01:59 31.40733 -85.28415 39063 ft 462 kts 48°
2026-05-05 01:59 31.43843 -85.21825 39093 ft 462 kts 48°
2026-05-05 02:00 31.46915 -85.15224 39062 ft 461 kts 48°
2026-05-05 02:00 31.49973 -85.08625 39060 ft 461 kts 48°
2026-05-05 02:01 31.53049 -85.02039 39070 ft 461 kts 48°
2026-05-05 02:01 31.56196 -84.95470 39059 ft 463 kts 48°
2026-05-05 02:02 31.59512 -84.89065 39061 ft 453 kts 41°
2026-05-05 02:02 31.63228 -84.83144 39059 ft 451 kts 41°
2026-05-05 02:03 31.66830 -84.77066 39059 ft 454 kts 43°
2026-05-05 02:03 31.70368 -84.70973 39076 ft 454 kts 43°
2026-05-05 02:04 31.74013 -84.64911 39059 ft 454 kts 42°
2026-05-05 02:04 31.77782 -84.58922 39050 ft 457 kts 42°
2026-05-05 02:05 31.81652 -84.52992 39051 ft 455 kts 40°
2026-05-05 02:05 31.85599 -84.47175 39056 ft 455 kts 40°
2026-05-05 02:06 31.89525 -84.41402 39051 ft 454 kts 39°
2026-05-05 02:06 31.93476 -84.35596 39046 ft 454 kts 39°
2026-05-05 02:07 31.97435 -84.29792 39055 ft 454 kts 39°
2026-05-05 02:07 32.01431 -84.24005 39047 ft 455 kts 39°
2026-05-05 02:08 32.05528 -84.18298 39045 ft 457 kts 38°
2026-05-05 02:08 32.09641 -84.12589 39045 ft 456 kts 38°
2026-05-05 02:09 32.13753 -84.06887 39046 ft 456 kts 38°
2026-05-05 02:09 32.17870 -84.01184 39049 ft 456 kts 38°
2026-05-05 02:10 32.21964 -83.95511 39065 ft 456 kts 38°
2026-05-05 02:10 32.26156 -83.89899 39064 ft 453 kts 36°
2026-05-05 02:11 32.28328 -83.87202 38624 ft 452 kts 34°
2026-05-05 02:11 32.30603 -83.84678 38155 ft 442 kts 29°
2026-05-05 02:11 32.34985 -83.79609 38082 ft 452 kts 42°
2026-05-05 02:12 32.40459 -83.70347 38076 ft 459 kts 45°
2026-05-05 02:13 32.44056 -83.64153 38078 ft 459 kts 45°
2026-05-05 02:13 32.47683 -83.57928 38077 ft 459 kts 45°
2026-05-05 02:14 32.51368 -83.51697 37319 ft 465 kts 45°
2026-05-05 02:14 32.53294 -83.48574 36344 ft 474 kts 45°
2026-05-05 02:14 32.55285 -83.45432 35588 ft 478 kts 45°
2026-05-05 02:14 32.57294 -83.42310 35176 ft 473 kts 45°
2026-05-05 02:15 32.59271 -83.39243 35073 ft 464 kts 46°
2026-05-05 02:15 32.62956 -83.32919 35061 ft 467 kts 49°
2026-05-05 02:16 32.66580 -83.26504 35060 ft 468 kts 49°
2026-05-05 02:16 32.69592 -83.21172 35058 ft 468 kts 49°
2026-05-05 02:17 32.73196 -83.14722 35076 ft 468 kts 52°
2026-05-05 02:17 32.76693 -83.08188 35063 ft 468 kts 52°
2026-05-05 02:18 32.80197 -83.01651 35062 ft 468 kts 52°
2026-05-05 02:18 32.83675 -82.95166 35060 ft 468 kts 51°
2026-05-05 02:19 32.87182 -82.88636 35055 ft 468 kts 51°
2026-05-05 02:19 32.90690 -82.82113 35049 ft 468 kts 51°
2026-05-05 02:20 32.94213 -82.75590 35054 ft 468 kts 52°
2026-05-05 02:20 32.97808 -82.69149 35056 ft 466 kts 51°
2026-05-05 02:21 33.01354 -82.62676 35054 ft 467 kts 54°
2026-05-05 02:21 33.04730 -82.56048 35054 ft 467 kts 54°
2026-05-05 02:22 33.08098 -82.49422 35044 ft 467 kts 54°
2026-05-05 02:22 33.11447 -82.42839 35051 ft 467 kts 54°
2026-05-05 02:23 33.14842 -82.36214 35052 ft 467 kts 54°
2026-05-05 02:23 33.18275 -82.29610 35052 ft 468 kts 54°
2026-05-05 02:24 33.21470 -82.22814 35057 ft 470 kts 58°
2026-05-05 02:24 33.24562 -82.15934 35059 ft 470 kts 58°
2026-05-05 02:25 33.27658 -82.09045 35065 ft 470 kts 58°
2026-05-05 02:25 33.30731 -82.02213 35063 ft 470 kts 58°
2026-05-05 02:26 33.33830 -81.95332 35060 ft 470 kts 58°
2026-05-05 02:26 33.36934 -81.88454 35064 ft 470 kts 58°
2026-05-05 02:27 33.40045 -81.81569 35065 ft 470 kts 58°
2026-05-05 02:27 33.43170 -81.74704 35060 ft 469 kts 58°
2026-05-05 02:28 33.46298 -81.67856 35085 ft 469 kts 59°
2026-05-05 02:28 33.49283 -81.60967 35093 ft 469 kts 60°
2026-05-05 02:29 33.52312 -81.54041 35069 ft 469 kts 59°
2026-05-05 02:29 33.55340 -81.47126 35070 ft 469 kts 59°